Location: Kikino
(54.4440°N, 112.0940°W)
Time: 17:50:05
(UTC+00:00)

A-11 Canister half - Pass Details

Date: 25 May 2024
Orbit: 1525 x 1683 km, 47.3° (Epoch: 12 June)

Event Time Altitude Azimuth Distance (km) Brightness Sun altitude
Rises 03:54:12 0° 217° (SW) 4,674 11.5 -2.1°
Reaches altitude 10° 03:57:31 10° 209° (SSW) 3,705 10.9 -2.4°
Maximum altitude 04:05:42 36° 147° (SSE) 2,298 9.5 -3.3°
Drops below altitude 10° 04:14:05 10° 86° (E) 3,808 10.7 -4.2°
Sets 04:17:32 0° 79° (ENE) 4,819 11.3 -4.5°
